QPF
0.11 0.14 0.16 0.15 0.18 0.17 0.14 0.12 0.16 0.15 0.10 0.07 0.05 0.04 0.02 0.01 0.00 0.00 0.00 0.00 0.00 0.00 0.00 0.00 0.00 0.00 0.00 0.01 0.00 0.00 0.01 0.00 0.00 0.00 0.01 0.01 0.00 0.00 0.00 0.01 0.02 0.02 0.02
0.08 0.10 0.11 0.13 0.16 0.16 0.14 0.12 0.14 0.12 0.10 0.08 0.06 0.04 0.02 0.01 0.00 0.00 0.00 0.00 0.00 0.00 0.00 0.00 0.00 0.00 0.00 0.00 0.00 0.00 0.00 0.01 0.00 0.00 0.01 0.01 0.01 0.01 0.00 0.00 0.01 0.01 0.01
0.05 0.07 0.09 0.09 0.12 0.12 0.13 0.13 0.12 0.11 0.11 0.09 0.05 0.03 0.01 0.00 0.00 0.00 0.00 0.00 0.00 0.00 0.00 0.00 0.00 0.00 0.00 0.00 0.00 0.00 0.00 0.00 0.00 0.00 0.00 0.01 0.02 0.02 0.00 0.00 0.00 0.00 0.00
0.03 0.05 0.07 0.08 0.08 0.10 0.10 0.12 0.10 0.10 0.08 0.08 0.06 0.03 0.02 0.01 0.01 0.00 0.00 0.00 0.00 0.00 0.00 0.00 0.00 0.00 0.00 0.00 0.00 0.00 0.00 0.00 0.00 0.00 0.00 0.00 0.01 0.01 0.02 0.01 0.00 0.00 0.00
0.02 0.05 0.06 0.07 0.07 0.09 0.07 0.07 0.07 0.07 0.06 0.06 0.06 0.04 0.02 0.02 0.01 0.00 0.00 0.00 0.00 0.00 0.00 0.00 0.00 0.00 0.00 0.00 0.00 0.00 0.00 0.00 0.00 0.00 0.00 0.00 0.00 0.00 0.00 0.01 0.00 0.00 0.00
0.02 0.05 0.08 0.10 0.08 0.09 0.06 0.04 0.03 0.03 0.04 0.04 0.04 0.03 0.03 0.03 0.02 0.01 0.01 0.00 0.00 0.00 0.00 0.00 0.00 0.00 0.00 0.00 0.00 0.00 0.00 0.00 0.00 0.00 0.00 0.00 0.00 0.00 0.00 0.00 0.00 0.00 0.00
0.01 0.03 0.05 0.06 0.07 0.06 0.05 0.03 0.02 0.02 0.02 0.03 0.03 0.03 0.03 0.03 0.02 0.02 0.01 0.00 0.00 0.00 0.00 0.00 0.00 0.00 0.00 0.00 0.00 0.00 0.00 0.00 0.00 0.00 0.00 0.00 0.00 0.00 0.00 0.00 0.00 0.00 0.00
0.00 0.01 0.02 0.02 0.03 0.03 0.04 0.04 0.02 0.01 0.02 0.02 0.03 0.03 0.03 0.02 0.02 0.02 0.02 0.00 0.00 0.00 0.00 0.00 0.00 0.00 0.00 0.00 0.00 0.00 0.00 0.00 0.00 0.00 0.00 0.00 0.00 0.00 0.00 0.00 0.00 0.00 0.00
0.00 0.01 0.01 0.01 0.01 0.01 0.03 0.03 0.02 0.02 0.02 0.03 0.03 0.02 0.02 0.02 0.03 0.02 0.01 0.00 0.00 0.00 0.00 0.00 0.00 0.00 0.00 0.00 0.00 0.00 0.00 0.00 0.00 0.00 0.00 0.00 0.00 0.00 0.00 0.00 0.00 0.00 0.00
0.00 0.00 0.00 0.00 0.00 0.00 0.01 0.02 0.01 0.01 0.02 0.02 0.02 0.01 0.02 0.02 0.02 0.02 0.01 0.01 0.00 0.00 0.00 0.00 0.00 0.00 0.00 0.00 0.00 0.00 0.00 0.00 0.00 0.00 0.00 0.00 0.00 0.00 0.00 0.00 0.00 0.00 0.00
0.00 0.00 0.00 0.00 0.00 0.01 0.01 0.00 0.00 0.01 0.01 0.01 0.02 0.02 0.02 0.02 0.01 0.01 0.01 0.01 0.01 0.00 0.00 0.00 0.00 0.00 0.00 0.00 0.00 0.00 0.00 0.00 0.00 0.00 0.00 0.00 0.00 0.00 0.00 0.00 0.00 0.00 0.00
0.00 0.00 0.00 0.00 0.00 0.00 0.00 0.00 0.00 0.00 0.00 0.01 0.01 0.02 0.02 0.02 0.02 0.02 0.02 0.02 0.01 0.01 0.00 0.00 0.00 0.00 0.00 0.00 0.00 0.00 0.00 0.00 0.00 0.00 0.00 0.00 0.00 0.00 0.00 0.00 0.00 0.00 0.00
0.00 0.00 0.00 0.00 0.00 0.00 0.00 0.00 0.00 0.00 0.00 0.00 0.01 0.02 0.03 0.03 0.04 0.04 0.02 0.02 0.02 0.01 0.00 0.00 0.00 0.00 0.00 0.00 0.00 0.00 0.00 0.00 0.00 0.00 0.00 0.00 0.00 0.00 0.00 0.00 0.00 0.00 0.00
0.00 0.00 0.00 0.00 0.00 0.00 0.00 0.00 0.00 0.00 0.00 0.01 0.02 0.04 0.04 0.04 0.03 0.03 0.03 0.03 0.02 0.02 0.01 0.01 0.01 0.00 0.00 0.00 0.00 0.00 0.00 0.00 0.00 0.00 0.00 0.00 0.00 0.00 0.00 0.00 0.00 0.00 0.01
0.01 0.01 0.02 0.01 0.01 0.01 0.01 0.01 0.01 0.02 0.03 0.05 0.08 0.07 0.06 0.06 0.05 0.05 0.05 0.04 0.03 0.03 0.02 0.02 0.01 0.01 0.01 0.01 0.00 0.00 0.00 0.00 0.00 0.00 0.00 0.00 0.00 0.00 0.01 0.00 0.01 0.01 0.01
0.01 0.02 0.02 0.02 0.02 0.02 0.04 0.04 0.03 0.03 0.04 0.08 0.11 0.12 0.12 0.11 0.10 0.09 0.08 0.07 0.05 0.04 0.04 0.03 0.02 0.01 0.01 0.01 0.01 0.01 0.00 0.01 0.01 0.02 0.02 0.01 0.01 0.01 0.01 0.00 0.01 0.01 0.01
0.01 0.02 0.02 0.03 0.02 0.01 0.02 0.02 0.03 0.03 0.05 0.07 0.07 0.09 0.12 0.15 0.15 0.11 0.10 0.10 0.09 0.07 0.06 0.06 0.05 0.03 0.03 0.02 0.02 0.02 0.01 0.00 0.01 0.02 0.03 0.02 0.01 0.03 0.04 0.03 0.02 0.01 0.01
0.01 0.02 0.03 0.03 0.04 0.05 0.05 0.04 0.04 0.05 0.06 0.08 0.08 0.08 0.11 0.15 0.14 0.10 0.09 0.09 0.09 0.09 0.08 0.08 0.07 0.06 0.04 0.04 0.04 0.04 0.02 0.01 0.01 0.01 0.02 0.03 0.02 0.03 0.05 0.06 0.05 0.04 0.02
0.01 0.01 0.02 0.03 0.05 0.08 0.06 0.06 0.08 0.11 0.10 0.10 0.11 0.10 0.13 0.12 0.09 0.07 0.07 0.06 0.06 0.06 0.05 0.05 0.05 0.04 0.04 0.04 0.04 0.04 0.02 0.01 0.02 0.02 0.03 0.04 0.04 0.04 0.05 0.06 0.06 0.06 0.04
0.01 0.01 0.02 0.03 0.05 0.07 0.09 0.08 0.07 0.09 0.09 0.09 0.11 0.09 0.09 0.11 0.09 0.07 0.06 0.05 0.05 0.05 0.06 0.06 0.05 0.05 0.05 0.05 0.05 0.04 0.02 0.02 0.02 0.03 0.04 0.04 0.04 0.04 0.04 0.05 0.06 0.06 0.04
0.01 0.01 0.02 0.02 0.03 0.04 0.04 0.04 0.05 0.05 0.06 0.06 0.06 0.06 0.06 0.06 0.05 0.05 0.05 0.04 0.04 0.04 0.04 0.04 0.04 0.04 0.05 0.05 0.04 0.03 0.02 0.01 0.02 0.03 0.03 0.04 0.04 0.03 0.02 0.02 0.03 0.04 0.04
0.00 0.01 0.01 0.01 0.01 0.02 0.02 0.03 0.04 0.04 0.04 0.04 0.04 0.03 0.03 0.02 0.02 0.03 0.03 0.02 0.03 0.03 0.03 0.03 0.02 0.02 0.03 0.02 0.02 0.01 0.00 0.00 0.01 0.01 0.01 0.02 0.02 0.01 0.01 0.01 0.01 0.01 0.02
0.00 0.00 0.00 0.00 0.00 0.01 0.01 0.02 0.03 0.03 0.03 0.03 0.02 0.02 0.01 0.01 0.00 0.00 0.01 0.01 0.01 0.01 0.01 0.01 0.01 0.01 0.01 0.01 0.00 0.00 0.00 0.00 0.00 0.00 0.00 0.00 0.00 0.00 0.00 0.01 0.01 0.01 0.01
0.01 0.01 0.01 0.01 0.01 0.01 0.01 0.01 0.01 0.01 0.01 0.01 0.01 0.01 0.01 0.01 0.01 0.01 0.01 0.01 0.01 0.01 0.01 0.00 0.00 0.00 0.00 0.00 0.00 0.00 0.00 0.00 0.00 0.00 0.00 0.00 0.00 0.00 0.00 0.00 0.00 0.01 0.01
0.03 0.02 0.02 0.02 0.01 0.01 0.01 0.01 0.01 0.01 0.01 0.01 0.00 0.01 0.01 0.00 0.00 0.00 0.00 0.00 0.00 0.00 0.00 0.00 0.00 0.00 0.00 0.00 0.00 0.00 0.00 0.00 0.00 0.00 0.00 0.00 0.00 0.00 0.00 0.01 0.01 0.02 0.02
0.04 0.03 0.03 0.03 0.03 0.03 0.03 0.02 0.01 0.01 0.01 0.01 0.01 0.01 0.00 0.00 0.00 0.00 0.00 0.00 0.00 0.00 0.00 0.00 0.00 0.00 0.00 0.00 0.00 0.00 0.00 0.00 0.00 0.00 0.00 0.00 0.00 0.01 0.01 0.02 0.02 0.03 0.05
MSLP
1009.96 1010.68 1011.34 1011.91 1012.37 1012.75 1013.05 1013.32 1013.59 1013.89 1014.21 1014.56 1014.93 1015.30 1015.64 1015.94 1016.21 1016.43 1016.61 1016.78 1016.92 1017.07 1017.20 1017.33 1017.45 1017.55 1017.65 1017.74 1017.84 1017.95 1018.07 1018.21 1018.35 1018.49 1018.60 1018.66 1018.66 1018.59 1018.45 1018.26 1018.06 1017.88 1017.76
1010.31 1011.04 1011.70 1012.24 1012.65 1012.95 1013.18 1013.38 1013.59 1013.85 1014.17 1014.54 1014.93 1015.31 1015.67 1015.97 1016.22 1016.43 1016.60 1016.76 1016.93 1017.11 1017.30 1017.49 1017.67 1017.83 1017.96 1018.06 1018.14 1018.21 1018.28 1018.38 1018.50 1018.63 1018.75 1018.84 1018.89 1018.86 1018.75 1018.58 1018.38 1018.17 1018.00
1010.52 1011.27 1011.92 1012.43 1012.79 1013.02 1013.18 1013.31 1013.48 1013.72 1014.05 1014.44 1014.86 1015.28 1015.66 1015.98 1016.22 1016.41 1016.56 1016.71 1016.88 1017.08 1017.31 1017.56 1017.80 1018.01 1018.18 1018.30 1018.37 1018.41 1018.46 1018.52 1018.60 1018.72 1018.86 1018.98 1019.06 1019.09 1019.03 1018.90 1018.72 1018.51 1018.31
1010.63 1011.39 1012.04 1012.53 1012.85 1013.03 1013.13 1013.21 1013.35 1013.57 1013.91 1014.33 1014.80 1015.26 1015.67 1016.00 1016.24 1016.40 1016.53 1016.65 1016.81 1017.01 1017.26 1017.55 1017.84 1018.10 1018.31 1018.45 1018.53 1018.57 1018.59 1018.63 1018.69 1018.80 1018.93 1019.08 1019.20 1019.27 1019.27 1019.19 1019.04 1018.84 1018.64
1010.68 1011.46 1012.13 1012.62 1012.92 1013.06 1013.11 1013.15 1013.26 1013.48 1013.83 1014.27 1014.77 1015.27 1015.71 1016.05 1016.28 1016.43 1016.52 1016.61 1016.74 1016.93 1017.18 1017.48 1017.80 1018.11 1018.36 1018.54 1018.64 1018.69 1018.71 1018.73 1018.78 1018.87 1019.00 1019.15 1019.30 1019.40 1019.45 1019.41 1019.30 1019.14 1018.94
1010.69 1011.52 1012.21 1012.72 1013.01 1013.14 1013.16 1013.17 1013.26 1013.46 1013.81 1014.27 1014.79 1015.30 1015.76 1016.11 1016.33 1016.46 1016.52 1016.58 1016.67 1016.82 1017.06 1017.37 1017.71 1018.05 1018.34 1018.56 1018.70 1018.77 1018.80 1018.82 1018.85 1018.93 1019.05 1019.19 1019.35 1019.48 1019.55 1019.56 1019.49 1019.35 1019.18
1010.67 1011.54 1012.28 1012.81 1013.12 1013.24 1013.26 1013.25 1013.31 1013.50 1013.83 1014.28 1014.79 1015.31 1015.77 1016.12 1016.34 1016.45 1016.48 1016.51 1016.56 1016.69 1016.91 1017.22 1017.57 1017.93 1018.26 1018.52 1018.70 1018.81 1018.86 1018.89 1018.92 1018.98 1019.08 1019.21 1019.36 1019.49 1019.58 1019.61 1019.56 1019.46 1019.31
1010.55 1011.47 1012.25 1012.82 1013.15 1013.29 1013.31 1013.29 1013.33 1013.50 1013.80 1014.23 1014.73 1015.23 1015.68 1016.02 1016.23 1016.33 1016.35 1016.35 1016.39 1016.50 1016.71 1017.01 1017.37 1017.75 1018.12 1018.42 1018.65 1018.79 1018.87 1018.92 1018.95 1019.00 1019.08 1019.19 1019.31 1019.43 1019.52 1019.56 1019.54 1019.46 1019.33
1010.28 1011.22 1012.03 1012.63 1012.99 1013.16 1013.19 1013.18 1013.22 1013.36 1013.64 1014.04 1014.50 1014.98 1015.41 1015.74 1015.95 1016.05 1016.08 1016.08 1016.12 1016.23 1016.44 1016.74 1017.11 1017.51 1017.90 1018.24 1018.51 1018.70 1018.81 1018.88 1018.92 1018.96 1019.02 1019.11 1019.20 1019.30 1019.38 1019.42 1019.41 1019.35 1019.24
1009.79 1010.72 1011.53 1012.14 1012.54 1012.74 1012.81 1012.83 1012.88 1013.02 1013.28 1013.64 1014.08 1014.53 1014.94 1015.26 1015.47 1015.59 1015.64 1015.67 1015.73 1015.86 1016.08 1016.39 1016.78 1017.20 1017.61 1017.98 1018.28 1018.50 1018.64 1018.73 1018.79 1018.83 1018.88 1018.94 1019.01 1019.08 1019.14 1019.18 1019.17 1019.13 1019.05
1009.07 1009.94 1010.72 1011.32 1011.74 1011.98 1012.10 1012.17 1012.26 1012.43 1012.69 1013.04 1013.45 1013.88 1014.27 1014.59 1014.81 1014.96 1015.05 1015.13 1015.23 1015.40 1015.65 1015.98 1016.38 1016.80 1017.23 1017.61 1017.93 1018.17 1018.34 1018.45 1018.51 1018.56 1018.60 1018.65 1018.71 1018.76 1018.81 1018.84 1018.84 1018.82 1018.76
1008.20 1008.98 1009.67 1010.24 1010.66 1010.95 1011.14 1011.28 1011.44 1011.66 1011.95 1012.31 1012.71 1013.12 1013.50 1013.81 1014.05 1014.23 1014.37 1014.50 1014.66 1014.88 1015.16 1015.52 1015.92 1016.34 1016.76 1017.14 1017.46 1017.71 1017.89 1018.01 1018.09 1018.14 1018.19 1018.23 1018.28 1018.33 1018.37 1018.40 1018.41 1018.40 1018.37
1007.33 1007.96 1008.55 1009.07 1009.48 1009.80 1010.06 1010.30 1010.56 1010.85 1011.19 1011.57 1011.98 1012.37 1012.73 1013.04 1013.30 1013.50 1013.69 1013.87 1014.08 1014.34 1014.66 1015.02 1015.43 1015.84 1016.23 1016.58 1016.88 1017.12 1017.29 1017.42 1017.50 1017.57 1017.62 1017.67 1017.72 1017.77 1017.82 1017.86 1017.88 1017.89 1017.89
1006.64 1007.11 1007.57 1008.00 1008.40 1008.75 1009.09 1009.43 1009.78 1010.17 1010.57 1010.99 1011.40 1011.78 1012.12 1012.42 1012.67 1012.88 1013.09 1013.31 1013.56 1013.85 1014.18 1014.55 1014.94 1015.32 1015.67 1015.98 1016.24 1016.45 1016.60 1016.72 1016.80 1016.87 1016.94 1017.00 1017.06 1017.12 1017.17 1017.22 1017.26 1017.30 1017.32
1006.30 1006.61 1006.93 1007.28 1007.64 1008.02 1008.42 1008.86 1009.31 1009.78 1010.25 1010.70 1011.12 1011.48 1011.79 1012.04 1012.26 1012.47 1012.67 1012.90 1013.16 1013.46 1013.80 1014.15 1014.51 1014.85 1015.15 1015.40 1015.60 1015.76 1015.88 1015.97 1016.05 1016.12 1016.20 1016.27 1016.34 1016.41 1016.47 1016.53 1016.58 1016.62 1016.67
1006.42 1006.58 1006.79 1007.05 1007.37 1007.76 1008.22 1008.73 1009.27 1009.82 1010.34 1010.81 1011.21 1011.54 1011.80 1012.00 1012.16 1012.32 1012.49 1012.70 1012.95 1013.24 1013.56 1013.88 1014.19 1014.47 1014.71 1014.90 1015.04 1015.15 1015.22 1015.29 1015.35 1015.41 1015.48 1015.55 1015.63 1015.70 1015.76 1015.82 1015.87 1015.91 1015.96
1007.01 1007.07 1007.17 1007.36 1007.65 1008.04 1008.53 1009.10 1009.70 1010.30 1010.85 1011.32 1011.70 1011.98 1012.17 1012.29 1012.38 1012.47 1012.59 1012.75 1012.96 1013.21 1013.49 1013.78 1014.04 1014.27 1014.45 1014.57 1014.65 1014.70 1014.73 1014.75 1014.79 1014.83 1014.89 1014.95 1015.01 1015.07 1015.12 1015.15 1015.18 1015.20 1015.23
1007.98 1007.98 1008.03 1008.17 1008.43 1008.82 1009.32 1009.92 1010.55 1011.17 1011.73 1012.18 1012.52 1012.73 1012.84 1012.88 1012.88 1012.89 1012.93 1013.03 1013.19 1013.40 1013.63 1013.88 1014.10 1014.27 1014.40 1014.48 1014.51 1014.50 1014.49 1014.47 1014.47 1014.48 1014.51 1014.54 1014.57 1014.59 1014.60 1014.58 1014.56 1014.53 1014.51
1009.15 1009.15 1009.19 1009.30 1009.55 1009.93 1010.44 1011.04 1011.68 1012.29 1012.83 1013.25 1013.54 1013.68 1013.71 1013.66 1013.58 1013.50 1013.47 1013.50 1013.60 1013.77 1013.96 1014.17 1014.36 1014.50 1014.60 1014.64 1014.63 1014.59 1014.53 1014.48 1014.43 1014.40 1014.38 1014.36 1014.34 1014.30 1014.23 1014.15 1014.05 1013.94 1013.84
1010.32 1010.38 1010.43 1010.56 1010.80 1011.18 1011.68 1012.26 1012.89 1013.48 1013.98 1014.36 1014.59 1014.67 1014.63 1014.51 1014.35 1014.20 1014.11 1014.08 1014.14 1014.26 1014.43 1014.62 1014.79 1014.92 1015.00 1015.02 1015.00 1014.93 1014.85 1014.75 1014.66 1014.57 1014.49 1014.40 1014.30 1014.17 1014.02 1013.84 1013.63 1013.42 1013.22
1011.34 1011.47 1011.58 1011.74 1012.00 1012.37 1012.85 1013.42 1014.01 1014.56 1015.02 1015.35 1015.53 1015.56 1015.47 1015.29 1015.08 1014.88 1014.74 1014.68 1014.70 1014.81 1014.96 1015.14 1015.32 1015.45 1015.54 1015.56 1015.53 1015.45 1015.34 1015.21 1015.07 1014.92 1014.76 1014.59 1014.39 1014.16 1013.90 1013.61 1013.29 1012.96 1012.64
1012.12 1012.35 1012.53 1012.73 1013.00 1013.37 1013.83 1014.36 1014.91 1015.41 1015.83 1016.11 1016.25 1016.24 1016.11 1015.90 1015.65 1015.43 1015.27 1015.19 1015.21 1015.31 1015.47 1015.66 1015.85 1016.00 1016.10 1016.14 1016.12 1016.03 1015.90 1015.73 1015.53 1015.31 1015.07 1014.81 1014.51 1014.18 1013.81 1013.40 1012.96 1012.51 1012.07
1012.66 1012.97 1013.22 1013.47 1013.76 1014.12 1014.56 1015.04 1015.53 1015.98 1016.34 1016.58 1016.67 1016.64 1016.49 1016.26 1016.01 1015.79 1015.62 1015.55 1015.57 1015.68 1015.85 1016.07 1016.28 1016.46 1016.59 1016.64 1016.63 1016.53 1016.38 1016.17 1015.92 1015.63 1015.31 1014.95 1014.55 1014.12 1013.64 1013.13 1012.59 1012.04 1011.48
1013.03 1013.41 1013.71 1013.99 1014.29 1014.64 1015.03 1015.46 1015.88 1016.27 1016.57 1016.75 1016.81 1016.75 1016.59 1016.37 1016.13 1015.92 1015.77 1015.71 1015.75 1015.88 1016.07 1016.31 1016.55 1016.75 1016.90 1016.97 1016.96 1016.86 1016.68 1016.43 1016.12 1015.76 1015.36 1014.92 1014.44 1013.92 1013.36 1012.76 1012.14 1011.50 1010.86
1013.34 1013.75 1014.08 1014.37 1014.66 1014.98 1015.32 1015.68 1016.03 1016.34 1016.56 1016.69 1016.71 1016.63 1016.47 1016.25 1016.03 1015.84 1015.72 1015.69 1015.75 1015.90 1016.12 1016.37 1016.62 1016.84 1017.00 1017.08 1017.06 1016.94 1016.73 1016.44 1016.08 1015.66 1015.19 1014.68 1014.13 1013.55 1012.93 1012.28 1011.60 1010.91 1010.21
1013.67 1014.09 1014.42 1014.70 1014.97 1015.24 1015.52 1015.80 1016.06 1016.28 1016.43 1016.50 1016.47 1016.37 1016.20 1015.99 1015.79 1015.63 1015.54 1015.54 1015.62 1015.79 1016.03 1016.29 1016.55 1016.77 1016.92 1016.99 1016.95 1016.80 1016.56 1016.22 1015.81 1015.34 1014.82 1014.26 1013.67 1013.05 1012.40 1011.72 1011.02 1010.30 1009.58
Thickness
5747 5746 5744 5742 5739 5738 5736 5736 5735 5734 5736 5736 5736 5734 5734 5736 5737 5736 5734 5733 5733 5732 5732 5734 5732 5732 5731 5730 5730 5729 5729 5728 5729 5726 5725 5728 5731 5730 5729 5729 5728 5728 5727
5744 5742 5740 5738 5735 5734 5734 5733 5732 5732 5734 5734 5735 5735 5735 5735 5736 5735 5732 5732 5732 5731 5732 5731 5732 5730 5729 5729 5729 5727 5726 5729 5729 5724 5721 5719 5720 5725 5730 5728 5726 5726 5726
5746 5740 5737 5734 5732 5731 5731 5732 5731 5731 5733 5733 5733 5734 5733 5733 5733 5731 5731 5732 5731 5730 5729 5729 5730 5729 5730 5727 5727 5726 5725 5724 5727 5727 5722 5716 5713 5717 5723 5725 5724 5724 5723
5752 5744 5738 5733 5732 5731 5732 5732 5730 5730 5731 5731 5731 5730 5728 5729 5732 5733 5732 5731 5730 5730 5729 5728 5728 5728 5728 5726 5727 5725 5726 5723 5723 5725 5725 5722 5719 5714 5712 5717 5721 5722 5721
5757 5749 5743 5738 5735 5734 5733 5731 5729 5728 5729 5730 5731 5730 5731 5732 5734 5734 5731 5730 5730 5730 5729 5728 5727 5727 5726 5725 5725 5724 5724 5724 5721 5722 5723 5722 5721 5720 5713 5710 5713 5717 5719
5761 5753 5748 5742 5738 5736 5734 5732 5729 5728 5729 5730 5731 5730 5731 5732 5732 5731 5729 5729 5730 5730 5729 5728 5727 5726 5725 5725 5724 5723 5722 5721 5720 5719 5720 5719 5717 5715 5714 5710 5710 5712 5715
5764 5756 5749 5743 5739 5736 5734 5733 5730 5728 5729 5730 5731 5731 5731 5732 5731 5731 5730 5730 5731 5730 5730 5730 5726 5725 5724 5724 5723 5721 5720 5720 5718 5717 5717 5718 5718 5717 5714 5710 5708 5709 5712
5768 5761 5755 5748 5743 5740 5738 5735 5733 5731 5731 5731 5731 5732 5732 5732 5733 5732 5733 5732 5733 5735 5733 5730 5727 5725 5724 5723 5721 5721 5719 5718 5716 5716 5715 5713 5715 5715 5713 5709 5705 5701 5704
5773 5766 5760 5754 5748 5745 5743 5740 5736 5734 5734 5734 5733 5733 5733 5733 5734 5734 5734 5734 5734 5735 5733 5730 5727 5725 5723 5722 5721 5718 5718 5717 5714 5713 5712 5710 5712 5712 5711 5709 5706 5699 5693
5777 5771 5765 5760 5756 5752 5748 5746 5742 5739 5738 5737 5736 5735 5735 5735 5735 5734 5734 5734 5735 5734 5732 5729 5727 5724 5722 5720 5718 5716 5716 5714 5712 5710 5709 5708 5708 5709 5708 5707 5705 5701 5695
5781 5776 5771 5767 5763 5759 5754 5750 5746 5743 5741 5740 5739 5739 5737 5737 5736 5734 5734 5734 5734 5733 5731 5728 5726 5723 5721 5719 5716 5713 5713 5711 5709 5708 5707 5705 5704 5702 5703 5703 5701 5699 5696
5786 5781 5776 5771 5767 5762 5757 5753 5750 5747 5745 5743 5741 5739 5739 5737 5735 5734 5734 5734 5732 5731 5729 5727 5724 5722 5720 5718 5714 5711 5710 5709 5707 5705 5704 5702 5701 5699 5697 5696 5695 5695 5694
5787 5784 5778 5773 5769 5766 5762 5758 5754 5751 5749 5746 5743 5740 5738 5736 5735 5735 5734 5733 5731 5729 5727 5725 5722 5720 5718 5716 5713 5710 5708 5707 5705 5704 5702 5700 5698 5695 5694 5693 5691 5690 5690
5784 5781 5776 5772 5769 5767 5764 5761 5757 5756 5752 5749 5744 5740 5738 5737 5736 5734 5733 5731 5729 5726 5724 5723 5721 5719 5716 5714 5712 5709 5706 5705 5703 5702 5701 5698 5696 5694 5691 5689 5687 5685 5683
5779 5777 5773 5770 5767 5764 5763 5760 5757 5755 5754 5749 5743 5741 5739 5737 5735 5732 5730 5728 5726 5724 5722 5720 5718 5716 5713 5712 5709 5706 5705 5702 5700 5699 5698 5696 5695 5693 5690 5687 5685 5682 5679
5772 5773 5771 5768 5764 5762 5759 5756 5754 5753 5750 5746 5742 5740 5736 5733 5730 5728 5726 5724 5722 5719 5718 5715 5713 5711 5710 5709 5705 5703 5700 5699 5697 5695 5694 5693 5691 5690 5687 5684 5682 5678 5674
5763 5762 5761 5760 5759 5757 5755 5752 5749 5748 5743 5738 5735 5732 5729 5725 5722 5721 5719 5716 5714 5712 5711 5709 5707 5704 5702 5699 5697 5694 5692 5691 5690 5689 5687 5686 5688 5686 5684 5681 5677 5675 5672
5752 5751 5750 5750 5749 5748 5745 5743 5740 5737 5733 5727 5724 5723 5721 5716 5713 5711 5709 5707 5705 5702 5700 5699 5697 5695 5694 5690 5688 5685 5682 5681 5681 5680 5679 5677 5677 5677 5674 5673 5672 5671 5670
5740 5739 5739 5737 5734 5732 5731 5727 5724 5720 5716 5711 5708 5707 5706 5704 5701 5699 5697 5696 5694 5692 5690 5689 5687 5685 5683 5680 5677 5673 5672 5671 5670 5670 5670 5668 5667 5666 5663 5661 5661 5661 5663
5729 5726 5724 5722 5717 5715 5714 5711 5706 5703 5699 5696 5692 5690 5689 5687 5685 5684 5684 5682 5681 5680 5678 5676 5675 5674 5671 5669 5665 5661 5660 5658 5657 5657 5657 5656 5653 5651 5649 5647 5648 5648 5651
5715 5712 5709 5704 5701 5699 5697 5693 5690 5687 5684 5682 5679 5675 5674 5673 5671 5670 5669 5668 5668 5666 5665 5663 5663 5662 5660 5656 5652 5648 5646 5644 5642 5642 5642 5642 5638 5636 5634 5632 5632 5634 5635
5701 5699 5694 5690 5687 5685 5682 5677 5673 5672 5671 5668 5665 5662 5661 5661 5660 5657 5656 5656 5655 5653 5652 5651 5649 5649 5647 5642 5637 5633 5629 5626 5624 5624 5625 5625 5622 5620 5619 5619 5621 5620 5619
5688 5685 5680 5676 5673 5671 5668 5663 5660 5659 5657 5654 5652 5651 5649 5648 5646 5645 5644 5644 5642 5640 5638 5636 5633 5631 5630 5626 5621 5616 5613 5610 5608 5608 5608 5606 5604 5603 5606 5608 5607 5605 5605
5675 5671 5667 5662 5658 5656 5652 5649 5647 5646 5643 5641 5640 5639 5638 5637 5635 5633 5633 5631 5629 5625 5621 5618 5615 5614 5611 5607 5602 5598 5596 5593 5592 5591 5590 5588 5589 5589 5591 5593 5594 5593 5592
5664 5659 5654 5650 5646 5644 5641 5640 5637 5634 5630 5629 5628 5628 5628 5627 5625 5623 5622 5620 5618 5614 5608 5605 5601 5598 5594 5587 5580 5577 5576 5573 5570 5567 5568 5571 5573 5575 5576 5576 5577 5576 5576
5652 5648 5644 5641 5637 5634 5630 5628 5625 5622 5618 5616 5616 5616 5616 5615 5614 5612 5611 5609 5606 5602 5598 5593 5587 5582 5575 5570 5565 5560 5556 5553 5548 5545 5549 5551 5551 5552 5552 5552 5553 5553 5553